IGO6AS VOHS-VOHS

Flight info

Callsign IGO6AS
Flight time 0h 21m
Altitude 6000
Route HS125
Aircraft A21N/M-SDE2E3FGHIRWXY/LB1

Departure

Time 2026-04-18 09:01
Airport Rajiv Gandhi International Airport (VOHS)

Arrival

Time 2026-04-18 09:23
Airport Rajiv Gandhi International Airport (VOHS)
Time Latitude Longitude Altitude Speed Heading
2026-04-18 08:42 17.23400 78.42956 1999 ft 0 kts 360°
2026-04-18 08:47 17.23401 78.42956 1999 ft 0 kts 360°
2026-04-18 08:48 17.23398 78.42956 1999 ft 0 kts 12°
2026-04-18 08:48 17.23385 78.42950 1999 ft 2 kts
2026-04-18 08:48 17.23370 78.42952 1999 ft 2 kts 356°
2026-04-18 08:48 17.23355 78.42952 2000 ft 2 kts
2026-04-18 08:49 17.23341 78.42948 2000 ft 2 kts 41°
2026-04-18 08:49 17.23334 78.42936 1999 ft 1 kts 82°
2026-04-18 08:49 17.23333 78.42930 1999 ft 1 kts 92°
2026-04-18 08:49 17.23334 78.42926 1999 ft 0 kts 89°
2026-04-18 08:51 17.23334 78.42925 1999 ft 0 kts 89°
2026-04-18 08:52 17.23334 78.42926 1999 ft 0 kts 89°
2026-04-18 08:52 17.23334 78.42927 1999 ft 0 kts 89°
2026-04-18 08:52 17.23334 78.42931 1999 ft 1 kts 89°
2026-04-18 08:52 17.23334 78.42947 2000 ft 3 kts 90°
2026-04-18 08:53 17.23334 78.42979 2001 ft 5 kts 90°
2026-04-18 08:53 17.23333 78.43026 2003 ft 7 kts 88°
2026-04-18 08:53 17.23334 78.43085 2005 ft 9 kts 89°
2026-04-18 08:53 17.23309 78.43150 2007 ft 10 kts 147°
2026-04-18 08:54 17.23224 78.43166 2008 ft 14 kts 178°
2026-04-18 08:54 17.23132 78.43173 2007 ft 12 kts 159°
2026-04-18 08:54 17.23093 78.43251 2009 ft 13 kts 90°
2026-04-18 08:54 17.23095 78.43362 2012 ft 16 kts 91°
2026-04-18 08:55 17.23096 78.43483 2015 ft 17 kts 86°
2026-04-18 08:55 17.23097 78.43612 2019 ft 18 kts 89°
2026-04-18 08:55 17.23100 78.43744 2024 ft 18 kts 89°
2026-04-18 08:55 17.23101 78.43887 2028 ft 19 kts 89°
2026-04-18 08:56 17.23102 78.44032 2033 ft 20 kts 90°
2026-04-18 08:56 17.23104 78.44184 2037 ft 21 kts 89°
2026-04-18 08:56 17.23107 78.44348 2038 ft 23 kts 90°
2026-04-18 08:56 17.23108 78.44527 2038 ft 26 kts 90°
2026-04-18 08:57 17.23110 78.44867 2027 ft 15 kts 99°
2026-04-18 08:57 17.23059 78.44926 2027 ft 9 kts 162°
2026-04-18 08:57 17.23037 78.44929 2028 ft 0 kts 177°
2026-04-18 08:59 17.23036 78.44929 2028 ft 0 kts 178°
2026-04-18 08:59 17.23028 78.44930 2028 ft 1 kts 178°
2026-04-18 08:59 17.23011 78.44930 2028 ft 2 kts 178°
2026-04-18 08:59 17.22987 78.44931 2029 ft 4 kts 178°
2026-04-18 09:00 17.22943 78.44930 2030 ft 7 kts 200°
2026-04-18 09:00 17.22910 78.44878 2032 ft 10 kts 266°
2026-04-18 09:00 17.22907 78.44746 2034 ft 42 kts 269°
2026-04-18 09:00 17.22897 78.44168 2034 ft 113 kts 269°
2026-04-18 09:01 17.22883 78.43118 2005 ft 173 kts 268°
2026-04-18 09:01 17.22864 78.41742 2209 ft 200 kts 268°
2026-04-18 09:01 17.22864 78.40252 2487 ft 208 kts 269°
2026-04-18 09:01 17.22882 78.38750 2859 ft 205 kts 270°
2026-04-18 09:02 17.22874 78.37273 3281 ft 204 kts 271°
2026-04-18 09:02 17.22796 78.35771 3462 ft 217 kts 258°
2026-04-18 09:02 17.22041 78.34326 3459 ft 239 kts 225°
2026-04-18 09:02 17.20570 78.33412 3430 ft 254 kts 194°
2026-04-18 09:03 17.18871 78.33179 3465 ft 238 kts 182°
2026-04-18 09:03 17.17212 78.33134 3477 ft 236 kts 180°
2026-04-18 09:03 17.15591 78.33339 3462 ft 235 kts 158°
2026-04-18 09:03 17.14279 78.34347 3477 ft 236 kts 126°
2026-04-18 09:04 17.13666 78.35913 3486 ft 239 kts 98°
2026-04-18 09:04 17.13567 78.37677 3502 ft 242 kts 91°
2026-04-18 09:04 17.13585 78.39432 3499 ft 243 kts 90°
2026-04-18 09:04 17.13625 78.41200 3496 ft 243 kts 89°
2026-04-18 09:05 17.13669 78.42963 3497 ft 243 kts 89°
2026-04-18 09:05 17.13717 78.44728 3498 ft 241 kts 89°
2026-04-18 09:05 17.13768 78.46471 3495 ft 239 kts 89°
2026-04-18 09:05 17.13819 78.48217 3492 ft 238 kts 89°
2026-04-18 09:06 17.13869 78.49947 3491 ft 238 kts 89°
2026-04-18 09:06 17.13918 78.51685 3489 ft 238 kts 89°
2026-04-18 09:06 17.13954 78.53405 3488 ft 237 kts 89°
2026-04-18 09:06 17.14037 78.55109 3470 ft 235 kts 77°
2026-04-18 09:07 17.14765 78.56592 3449 ft 233 kts 45°
2026-04-18 09:07 17.16168 78.57430 3447 ft 233 kts 12°
2026-04-18 09:07 17.17794 78.57582 3476 ft 236 kts
2026-04-18 09:07 17.19444 78.57561 3474 ft 238 kts 359°
2026-04-18 09:08 17.21112 78.57471 3467 ft 239 kts 351°
2026-04-18 09:08 17.22616 78.56763 3429 ft 239 kts 319°
2026-04-18 09:08 17.23637 78.55424 3161 ft 233 kts 295°
2026-04-18 09:08 17.23961 78.53778 2548 ft 236 kts 264°
2026-04-18 09:09 17.23751 78.52117 2695 ft 233 kts 258°
2026-04-18 09:09 17.23441 78.50513 2683 ft 214 kts 256°
2026-04-18 09:09 17.23146 78.49036 2471 ft 203 kts 261°
2026-04-18 09:09 17.22967 78.47652 2484 ft 180 kts 265°
2026-04-18 09:10 17.22947 78.46363 2196 ft 174 kts 269°
2026-04-18 09:10 17.22921 78.45111 2113 ft 173 kts 267°
2026-04-18 09:10 17.22900 78.43876 2041 ft 167 kts 268°
2026-04-18 09:10 17.22886 78.42721 1990 ft 159 kts 266°
2026-04-18 09:11 17.22862 78.41466 2306 ft 173 kts 270°
2026-04-18 09:11 17.22846 78.40237 2878 ft 169 kts 270°
2026-04-18 09:11 17.22830 78.39030 3111 ft 169 kts 269°
2026-04-18 09:11 17.22824 78.37771 3252 ft 173 kts 269°
2026-04-18 09:12 17.22812 78.36499 3383 ft 179 kts 262°
2026-04-18 09:12 17.22285 78.35310 3440 ft 188 kts 221°
2026-04-18 09:12 17.21108 78.34632 3414 ft 204 kts 190°
2026-04-18 09:12 17.19642 78.34467 3482 ft 218 kts 181°
2026-04-18 09:13 17.18057 78.34418 3504 ft 233 kts 180°
2026-04-18 09:13 17.16426 78.34397 3496 ft 237 kts 180°
2026-04-18 09:13 17.14757 78.34448 3482 ft 238 kts 168°
2026-04-18 09:13 17.13271 78.35178 3483 ft 239 kts 136°
2026-04-18 09:14 17.12355 78.36623 3478 ft 239 kts 104°
2026-04-18 09:14 17.12109 78.38334 3495 ft 241 kts 92°
2026-04-18 09:14 17.12050 78.40080 3489 ft 241 kts 90°
2026-04-18 09:14 17.12026 78.41811 3475 ft 232 kts 89°
2026-04-18 09:15 17.12006 78.43487 3479 ft 229 kts 89°
2026-04-18 09:15 17.11991 78.45133 3485 ft 227 kts 89°
2026-04-18 09:15 17.11989 78.46763 3474 ft 220 kts 89°
2026-04-18 09:15 17.12001 78.48354 3473 ft 217 kts 89°
2026-04-18 09:16 17.12025 78.49933 3559 ft 217 kts 89°
2026-04-18 09:16 17.12060 78.51495 3551 ft 216 kts 89°
2026-04-18 09:16 17.12095 78.53063 3512 ft 215 kts 89°
2026-04-18 09:16 17.12128 78.54627 3494 ft 214 kts 89°
2026-04-18 09:17 17.12159 78.56175 3485 ft 214 kts 89°
2026-04-18 09:17 17.12188 78.57734 3481 ft 214 kts 89°
2026-04-18 09:17 17.12277 78.59276 3459 ft 207 kts 77°
2026-04-18 09:17 17.12994 78.60474 3456 ft 194 kts 39°
2026-04-18 09:18 17.14253 78.60928 3466 ft 194 kts
2026-04-18 09:18 17.15614 78.60945 3469 ft 194 kts 360°
2026-04-18 09:18 17.16984 78.60900 3469 ft 195 kts 359°
2026-04-18 09:18 17.18347 78.60847 3469 ft 196 kts 359°
2026-04-18 09:19 17.19720 78.60791 3468 ft 197 kts 359°
2026-04-18 09:19 17.21091 78.60734 3470 ft 197 kts 359°
2026-04-18 09:19 17.22471 78.60579 3453 ft 199 kts 344°
2026-04-18 09:19 17.23573 78.59714 3448 ft 203 kts 305°
2026-04-18 09:20 17.23945 78.58328 3461 ft 203 kts 267°
2026-04-18 09:20 17.23665 78.56876 3485 ft 202 kts 258°
2026-04-18 09:20 17.23508 78.55409 3477 ft 203 kts 265°
2026-04-18 09:20 17.23423 78.53945 3477 ft 203 kts 266°
2026-04-18 09:21 17.23259 78.52476 3468 ft 202 kts 259°
2026-04-18 09:21 17.23038 78.51079 3189 ft 190 kts 265°
2026-04-18 09:21 17.22987 78.49746 2943 ft 175 kts 268°
2026-04-18 09:21 17.22981 78.48506 2735 ft 169 kts 269°
2026-04-18 09:22 17.22942 78.47298 2491 ft 165 kts 268°
2026-04-18 09:22 17.22918 78.46100 2214 ft 163 kts 269°
2026-04-18 09:22 17.22912 78.44947 2045 ft 157 kts 270°
2026-04-18 09:22 17.22904 78.43893 2028 ft 124 kts 266°
2026-04-18 09:23 17.22873 78.43309 2008 ft 37 kts 269°
2026-04-18 09:23 17.22891 78.43130 2004 ft 23 kts 279°
2026-04-18 09:23 17.22952 78.42971 2000 ft 24 kts 299°
2026-04-18 09:23 17.23023 78.42841 1994 ft 10 kts 300°
2026-04-18 09:24 17.23062 78.42770 1991 ft 2 kts 300°
2026-04-18 09:24 17.23063 78.42767 1990 ft 1 kts 300°
2026-04-18 09:24 17.23078 78.42747 1990 ft 4 kts 326°
2026-04-18 09:25 17.23116 78.42735 1989 ft 5 kts 349°
2026-04-18 09:25 17.23155 78.42731 1990 ft 5 kts 356°
2026-04-18 09:25 17.23191 78.42729 1991 ft 4 kts
2026-04-18 09:25 17.23220 78.42730 1991 ft 3 kts
2026-04-18 09:26 17.23244 78.42731 1992 ft 2 kts
2026-04-18 09:26 17.23263 78.42731 1992 ft 2 kts
2026-04-18 09:26 17.23286 78.42731 1992 ft 4 kts
2026-04-18 09:26 17.23320 78.42732 1992 ft 5 kts
2026-04-18 09:27 17.23369 78.42732 1991 ft 8 kts 359°
2026-04-18 09:27 17.23424 78.42731 1990 ft 4 kts 359°
2026-04-18 09:27 17.23426 78.42731 1990 ft 0 kts 359°